AXY2655 KMIA-KLAX

Flight info

Callsign AXY2655
Flight time 3h 8m
Altitude 40000
Route GLADZ4 BAGGS REMIS Y280 LEV J86 ELP J50 SSO J4 WLVRN ESTWD HLYWD1
Aircraft A359/H-SDE2E3GHIJ3J4J5LM1ORWXY/LB1D1

Departure

Time 2026-05-01 09:46
Airport Miami International Airport (KMIA)

Arrival

Time 2026-05-01 12:55
Airport Los Angeles International Airport (KLAX)
Time Latitude Longitude Altitude Speed Heading
2026-05-01 09:03 25.79104 -80.30205 30 ft 0 kts 268°
2026-05-01 09:07 25.79104 -80.30204 30 ft 1 kts 268°
2026-05-01 09:07 25.79105 -80.30179 31 ft 4 kts 268°
2026-05-01 09:08 25.79106 -80.30149 31 ft 4 kts 268°
2026-05-01 09:08 25.79107 -80.30125 30 ft 0 kts 268°
2026-05-01 09:08 25.79103 -80.30136 30 ft 13 kts 308°
2026-05-01 09:08 25.79058 -80.30126 30 ft 16 kts 168°
2026-05-01 09:09 25.78977 -80.30121 29 ft 16 kts 179°
2026-05-01 09:09 25.78877 -80.30103 29 ft 11 kts 136°
2026-05-01 09:09 25.78865 -80.30007 31 ft 16 kts 88°
2026-05-01 09:09 25.78869 -80.29887 31 ft 16 kts 87°
2026-05-01 09:10 25.78874 -80.29768 29 ft 16 kts 87°
2026-05-01 09:10 25.78879 -80.29648 29 ft 16 kts 87°
2026-05-01 09:10 25.78884 -80.29528 30 ft 16 kts 87°
2026-05-01 09:10 25.78889 -80.29408 29 ft 16 kts 87°
2026-05-01 09:11 25.78894 -80.29288 28 ft 16 kts 87°
2026-05-01 09:11 25.78898 -80.29199 28 ft 16 kts 87°
2026-05-01 09:11 25.78905 -80.29080 28 ft 16 kts 84°
2026-05-01 09:11 25.78919 -80.28981 28 ft 15 kts 76°
2026-05-01 09:12 25.78956 -80.28886 28 ft 5 kts 33°
2026-05-01 09:12 25.79051 -80.28876 25 ft 16 kts 358°
2026-05-01 09:12 25.79160 -80.28880 23 ft 16 kts 358°
2026-05-01 09:12 25.79268 -80.28884 27 ft 16 kts 358°
2026-05-01 09:13 25.79377 -80.28889 30 ft 16 kts 358°
2026-05-01 09:13 25.79469 -80.28892 29 ft 5 kts 358°
2026-05-01 09:13 25.79567 -80.28900 27 ft 16 kts 355°
2026-05-01 09:13 25.79639 -80.28879 29 ft 15 kts 49°
2026-05-01 09:14 25.79682 -80.28815 30 ft 14 kts 24°
2026-05-01 09:14 25.79751 -80.28815 30 ft 11 kts 356°
2026-05-01 09:14 25.79839 -80.28819 31 ft 16 kts 358°
2026-05-01 09:14 25.79922 -80.28799 32 ft 9 kts 57°
2026-05-01 09:15 25.79938 -80.28687 32 ft 16 kts 87°
2026-05-01 09:15 25.79943 -80.28567 29 ft 16 kts 87°
2026-05-01 09:15 25.79947 -80.28471 27 ft 11 kts 89°
2026-05-01 09:15 25.79910 -80.28431 27 ft 12 kts 148°
2026-05-01 09:16 25.79887 -80.28353 27 ft 16 kts 90°
2026-05-01 09:16 25.79890 -80.28241 28 ft 7 kts 87°
2026-05-01 09:16 25.79895 -80.28144 24 ft 16 kts 86°
2026-05-01 09:17 25.79879 -80.27988 27 ft 12 kts 101°
2026-05-01 09:17 25.79881 -80.27918 24 ft 8 kts 87°
2026-05-01 09:17 25.79866 -80.27790 27 ft 8 kts 156°
2026-05-01 09:18 25.79823 -80.27780 29 ft 6 kts 174°
2026-05-01 09:18 25.79769 -80.27776 30 ft 1 kts 176°
2026-05-01 09:19 25.79796 -80.27786 26 ft 0 kts 134°
2026-05-01 09:19 25.79789 -80.27777 28 ft 0 kts 180°
2026-05-01 09:26 25.79795 -80.27777 29 ft 4 kts 179°
2026-05-01 09:26 25.79848 -80.27776 27 ft 4 kts 198°
2026-05-01 09:26 25.79864 -80.27769 30 ft 4 kts 212°
2026-05-01 09:27 25.79888 -80.27732 31 ft 1 kts 267°
2026-05-01 09:27 25.79888 -80.27729 31 ft 0 kts 267°
2026-05-01 09:29 25.79891 -80.27735 31 ft 2 kts 292°
2026-05-01 09:30 25.79913 -80.27747 29 ft 6 kts 343°
2026-05-01 09:30 25.79960 -80.27769 29 ft 7 kts 321°
2026-05-01 09:30 25.79999 -80.27892 27 ft 11 kts 322°
2026-05-01 09:31 25.80048 -80.27961 26 ft 13 kts 272°
2026-05-01 09:31 25.80047 -80.28068 26 ft 15 kts 269°
2026-05-01 09:31 25.80037 -80.28298 30 ft 16 kts 268°
2026-05-01 09:32 25.80032 -80.28430 25 ft 18 kts 266°
2026-05-01 09:32 25.80020 -80.28703 32 ft 17 kts 267°
2026-05-01 09:32 25.80015 -80.28841 32 ft 19 kts 267°
2026-05-01 09:33 25.79929 -80.28914 32 ft 18 kts 180°
2026-05-01 09:33 25.79800 -80.28908 32 ft 19 kts 176°
2026-05-01 09:33 25.79652 -80.28901 29 ft 11 kts 178°
2026-05-01 09:34 25.79564 -80.28897 27 ft 15 kts 178°
2026-05-01 09:34 25.79464 -80.28892 27 ft 14 kts 178°
2026-05-01 09:34 25.79300 -80.28750 26 ft 19 kts 119°
2026-05-01 09:35 25.79234 -80.28622 30 ft 20 kts 120°
2026-05-01 09:35 25.79078 -80.28349 30 ft 21 kts 120°
2026-05-01 09:35 25.79004 -80.28204 31 ft 23 kts 119°
2026-05-01 09:36 25.78923 -80.28048 32 ft 24 kts 120°
2026-05-01 09:36 25.78872 -80.27870 30 ft 26 kts 87°
2026-05-01 09:36 25.78874 -80.27825 29 ft 0 kts 88°
2026-05-01 09:38 25.78875 -80.27758 28 ft 13 kts 92°
2026-05-01 09:38 25.78827 -80.27675 28 ft 13 kts 152°
2026-05-01 09:38 25.78771 -80.27691 29 ft 5 kts 237°
2026-05-01 09:39 25.78763 -80.27794 29 ft 10 kts 268°
2026-05-01 09:39 25.78758 -80.27905 28 ft 33 kts 267°
2026-05-01 09:39 25.78736 -80.28454 27 ft 91 kts 267°
2026-05-01 09:40 25.78717 -80.28933 27 ft 51 kts 267°
2026-05-01 09:40 25.78762 -80.29181 27 ft 11 kts
2026-05-01 09:40 25.78815 -80.29113 29 ft 14 kts 75°
2026-05-01 09:41 25.78830 -80.29004 26 ft 15 kts 79°
2026-05-01 09:41 25.78869 -80.28733 28 ft 21 kts 88°
2026-05-01 09:41 25.78874 -80.28603 26 ft 12 kts 86°
2026-05-01 09:42 25.78878 -80.28509 29 ft 13 kts 87°
2026-05-01 09:42 25.78882 -80.28403 29 ft 15 kts 88°
2026-05-01 09:42 25.78898 -80.28125 30 ft 20 kts 84°
2026-05-01 09:43 25.78874 -80.27825 29 ft 20 kts 87°
2026-05-01 09:43 25.78876 -80.27759 28 ft 0 kts 88°
2026-05-01 09:44 25.78852 -80.27686 28 ft 14 kts 121°
2026-05-01 09:44 25.78784 -80.27682 28 ft 9 kts 214°
2026-05-01 09:45 25.78765 -80.27747 29 ft 10 kts 267°
2026-05-01 09:45 25.78763 -80.27797 29 ft 7 kts 267°
2026-05-01 09:45 25.78751 -80.28093 28 ft 77 kts 268°
2026-05-01 09:46 25.78715 -80.28959 27 ft 145 kts 267°
2026-05-01 09:46 25.78664 -80.30216 496 ft 161 kts 268°
2026-05-01 09:46 25.78643 -80.31439 1314 ft 162 kts 270°
2026-05-01 09:46 25.78656 -80.32720 1890 ft 173 kts 271°
2026-05-01 09:47 25.78676 -80.34102 2414 ft 185 kts 270°
2026-05-01 09:47 25.78686 -80.35587 2886 ft 202 kts 266°
2026-05-01 09:47 25.78628 -80.36845 3216 ft 219 kts 264°
2026-05-01 09:47 25.78617 -80.37018 3262 ft 221 kts 264°
2026-05-01 09:48 25.78557 -80.37805 3438 ft 232 kts 263°
2026-05-01 09:48 25.78411 -80.39678 3862 ft 255 kts 263°
2026-05-01 09:48 25.78352 -80.41700 4489 ft 268 kts 269°
2026-05-01 09:48 25.78392 -80.43797 5214 ft 277 kts 270°
2026-05-01 09:49 25.78470 -80.45968 5950 ft 285 kts 272°
2026-05-01 09:49 25.78527 -80.48160 6912 ft 280 kts 270°
2026-05-01 09:49 25.78527 -80.50309 7961 ft 276 kts 270°
2026-05-01 09:49 25.78526 -80.52436 8946 ft 276 kts 270°
2026-05-01 09:50 25.78512 -80.54572 9918 ft 277 kts 270°
2026-05-01 09:50 25.78488 -80.56733 10650 ft 287 kts 270°
2026-05-01 09:50 25.78470 -80.59027 11043 ft 308 kts 270°
2026-05-01 09:50 25.78466 -80.61479 11396 ft 328 kts 270°
2026-05-01 09:51 25.78471 -80.64078 11795 ft 344 kts 270°
2026-05-01 09:51 25.78481 -80.66754 12415 ft 350 kts 271°
2026-05-01 09:51 25.78493 -80.69470 13146 ft 354 kts 271°
2026-05-01 09:51 25.78450 -80.72206 13879 ft 357 kts 266°
2026-05-01 09:52 25.77974 -80.74923 14531 ft 361 kts 256°
2026-05-01 09:52 25.77261 -80.77610 15174 ft 365 kts 255°
2026-05-01 09:52 25.76512 -80.80313 15813 ft 368 kts 256°
2026-05-01 09:52 25.75770 -80.82999 16444 ft 371 kts 256°
2026-05-01 09:53 25.75005 -80.85781 17116 ft 373 kts 256°
2026-05-01 09:53 25.74249 -80.88543 17768 ft 376 kts 257°
2026-05-01 09:53 25.73496 -80.91298 18401 ft 379 kts 257°
2026-05-01 09:53 25.72719 -80.94140 19008 ft 382 kts 257°
2026-05-01 09:54 25.71945 -80.96965 19629 ft 384 kts 256°
2026-05-01 09:54 25.71168 -80.99804 20242 ft 386 kts 256°
2026-05-01 09:54 25.70394 -81.02626 20859 ft 388 kts 256°
2026-05-01 09:54 25.69606 -81.05500 21466 ft 391 kts 256°
2026-05-01 09:55 25.68814 -81.08387 22062 ft 393 kts 256°
2026-05-01 09:55 25.68015 -81.11299 22653 ft 396 kts 256°
2026-05-01 09:55 25.67208 -81.14234 23148 ft 401 kts 256°
2026-05-01 09:55 25.66400 -81.17205 23663 ft 403 kts 256°
2026-05-01 09:56 25.65806 -81.20243 24126 ft 404 kts 264°
2026-05-01 09:56 25.65672 -81.23351 24612 ft 405 kts 273°
2026-05-01 09:56 25.66050 -81.26456 25097 ft 408 kts 283°
2026-05-01 09:56 25.66936 -81.29456 25616 ft 413 kts 292°
2026-05-01 09:57 25.68180 -81.32347 26071 ft 418 kts 295°
2026-05-01 09:57 25.69506 -81.35225 26597 ft 421 kts 296°
2026-05-01 09:57 25.70844 -81.38125 27104 ft 424 kts 296°
2026-05-01 09:57 25.72189 -81.41057 27619 ft 428 kts 296°
2026-05-01 09:58 25.73539 -81.44011 28092 ft 432 kts 296°
2026-05-01 09:58 25.74898 -81.46994 28569 ft 435 kts 296°
2026-05-01 09:58 25.76255 -81.49977 29042 ft 439 kts 296°
2026-05-01 09:58 25.77647 -81.53043 29507 ft 443 kts 296°
2026-05-01 09:59 25.79038 -81.56107 29957 ft 446 kts 296°
2026-05-01 09:59 25.80437 -81.59194 30348 ft 450 kts 296°
2026-05-01 09:59 25.81847 -81.62306 30741 ft 452 kts 296°
2026-05-01 09:59 25.83263 -81.65433 31132 ft 455 kts 296°
2026-05-01 10:00 25.84681 -81.68569 31595 ft 455 kts 296°
2026-05-01 10:00 25.86099 -81.71705 31974 ft 457 kts 296°
2026-05-01 10:00 25.87589 -81.74845 32298 ft 460 kts 299°
2026-05-01 10:00 25.89410 -81.77783 32620 ft 465 kts 307°
2026-05-01 10:01 25.91643 -81.80398 32934 ft 470 kts 316°
2026-05-01 10:01 25.94196 -81.82688 33298 ft 472 kts 320°
2026-05-01 10:01 25.96816 -81.84884 33760 ft 471 kts 320°
2026-05-01 10:01 25.99430 -81.87064 34217 ft 469 kts 320°
2026-05-01 10:02 26.02030 -81.89239 34640 ft 467 kts 320°
2026-05-01 10:02 26.04615 -81.91405 35158 ft 462 kts 320°
2026-05-01 10:02 26.07161 -81.93542 35716 ft 457 kts 320°
2026-05-01 10:02 26.09688 -81.95667 36166 ft 454 kts 320°
2026-05-01 10:03 26.12201 -81.97783 36550 ft 452 kts 320°
2026-05-01 10:03 26.14704 -81.99892 36934 ft 451 kts 321°
2026-05-01 10:03 26.17197 -82.01994 37317 ft 449 kts 320°
2026-05-01 10:03 26.19680 -82.04092 37697 ft 447 kts 320°
2026-05-01 10:04 26.22148 -82.06179 38075 ft 445 kts 320°
2026-05-01 10:04 26.24571 -82.08227 38443 ft 443 kts 320°
2026-05-01 10:04 26.27021 -82.10299 38771 ft 441 kts 321°
2026-05-01 10:04 26.29460 -82.12363 39012 ft 440 kts 321°
2026-05-01 10:05 26.31894 -82.14423 39241 ft 440 kts 321°
2026-05-01 10:05 26.34327 -82.16484 39460 ft 439 kts 321°
2026-05-01 10:05 26.36757 -82.18542 39700 ft 439 kts 320°
2026-05-01 10:05 26.39193 -82.20607 39895 ft 439 kts 320°
2026-05-01 10:06 26.44046 -82.24724 39956 ft 438 kts 320°
2026-05-01 10:06 26.48898 -82.28844 39955 ft 438 kts 320°
2026-05-01 10:07 26.53747 -82.32966 39952 ft 438 kts 320°
2026-05-01 10:07 26.58590 -82.37087 39955 ft 438 kts 320°
2026-05-01 10:08 26.65854 -82.43277 39957 ft 436 kts 320°
2026-05-01 10:09 26.70677 -82.47393 39960 ft 436 kts 320°
2026-05-01 10:09 26.75506 -82.51518 39958 ft 437 kts 320°
2026-05-01 10:10 26.80332 -82.55646 39962 ft 437 kts 320°
2026-05-01 10:10 26.87568 -82.61843 39960 ft 437 kts 320°
2026-05-01 10:11 26.92394 -82.65981 39963 ft 437 kts 320°
2026-05-01 10:11 26.97217 -82.70121 39964 ft 437 kts 320°
2026-05-01 10:12 27.01226 -82.73567 39966 ft 437 kts 320°
2026-05-01 10:13 27.08461 -82.79801 39956 ft 436 kts 320°
2026-05-01 10:13 27.12691 -82.84603 39960 ft 432 kts 306°
2026-05-01 10:14 27.15518 -82.90517 39961 ft 432 kts 293°
2026-05-01 10:14 27.16593 -82.93675 39955 ft 433 kts 292°
2026-05-01 10:14 27.18614 -83.00042 39958 ft 433 kts 291°
2026-05-01 10:15 27.20610 -83.06427 39957 ft 433 kts 291°
2026-05-01 10:15 27.22623 -83.12801 39960 ft 433 kts 291°
2026-05-01 10:16 27.24645 -83.19171 39942 ft 431 kts 291°
2026-05-01 10:17 27.27659 -83.28661 39957 ft 429 kts 291°
2026-05-01 10:17 27.30663 -83.38148 39942 ft 429 kts 291°
2026-05-01 10:18 27.33657 -83.47626 39959 ft 427 kts 291°
2026-05-01 10:19 27.35625 -83.53876 39956 ft 426 kts 291°
2026-05-01 10:19 27.37598 -83.60149 39953 ft 424 kts 291°
2026-05-01 10:20 27.40543 -83.69534 39955 ft 424 kts 291°
2026-05-01 10:20 27.42501 -83.75789 39956 ft 424 kts 291°
2026-05-01 10:21 27.45433 -83.85178 39954 ft 424 kts 291°
2026-05-01 10:22 27.48360 -83.94572 39955 ft 423 kts 291°
2026-05-01 10:23 27.51268 -84.03929 39951 ft 422 kts 291°
2026-05-01 10:23 27.54169 -84.13294 39955 ft 422 kts 291°
2026-05-01 10:24 27.58025 -84.25781 39952 ft 422 kts 291°
2026-05-01 10:25 27.61869 -84.38269 39955 ft 421 kts 291°
2026-05-01 10:26 27.63782 -84.44500 39955 ft 421 kts 291°
2026-05-01 10:27 27.67607 -84.56995 39954 ft 421 kts 291°
2026-05-01 10:28 27.70468 -84.66371 39951 ft 421 kts 291°
2026-05-01 10:28 27.73318 -84.75733 39952 ft 421 kts 290°
2026-05-01 10:29 27.76163 -84.85108 39950 ft 420 kts 290°
2026-05-01 10:30 27.79930 -84.97561 39951 ft 420 kts 290°
2026-05-01 10:31 27.83702 -85.10072 39951 ft 421 kts 290°
2026-05-01 10:32 27.86524 -85.19465 39950 ft 421 kts 290°
2026-05-01 10:33 27.90292 -85.31992 39945 ft 421 kts 290°
2026-05-01 10:34 27.93146 -85.41386 39951 ft 421 kts 290°
2026-05-01 10:34 27.95042 -85.47649 39946 ft 421 kts 289°
2026-05-01 10:35 27.97868 -85.57021 39947 ft 422 kts 289°
2026-05-01 10:35 27.99769 -85.63341 39958 ft 422 kts 289°
2026-05-01 10:36 28.02569 -85.72677 39949 ft 417 kts 289°
2026-05-01 10:37 28.04430 -85.78894 39940 ft 417 kts 289°
2026-05-01 10:37 28.07214 -85.88213 39941 ft 417 kts 289°
2026-05-01 10:38 28.09067 -85.94431 39942 ft 417 kts 289°
2026-05-01 10:38 28.10918 -86.00654 39941 ft 417 kts 289°
2026-05-01 10:39 28.12765 -86.06876 39940 ft 417 kts 289°
2026-05-01 10:39 28.14610 -86.13100 39944 ft 417 kts 289°
2026-05-01 10:40 28.16452 -86.19326 39944 ft 417 kts 288°
2026-05-01 10:40 28.18301 -86.25587 39945 ft 420 kts 288°
2026-05-01 10:41 28.20155 -86.31881 39942 ft 421 kts 288°
2026-05-01 10:42 28.22934 -86.41333 39944 ft 421 kts 288°
2026-05-01 10:42 28.24782 -86.47634 39944 ft 421 kts 288°
2026-05-01 10:43 28.26628 -86.53940 39939 ft 421 kts 288°
2026-05-01 10:43 28.28470 -86.60246 39937 ft 421 kts 288°
2026-05-01 10:44 28.30311 -86.66556 39935 ft 421 kts 288°
2026-05-01 10:44 28.32147 -86.72868 39937 ft 421 kts 288°
2026-05-01 10:45 28.33981 -86.79132 39943 ft 420 kts 288°
2026-05-01 10:45 28.35818 -86.85392 39935 ft 417 kts 288°
2026-05-01 10:46 28.37644 -86.91635 39935 ft 417 kts 288°
2026-05-01 10:46 28.39464 -86.97878 39937 ft 416 kts 288°
2026-05-01 10:47 28.41273 -87.04096 39935 ft 414 kts 288°
2026-05-01 10:47 28.43075 -87.10303 39930 ft 414 kts 288°
2026-05-01 10:48 28.44874 -87.16513 39930 ft 414 kts 288°
2026-05-01 10:48 28.46671 -87.22728 39930 ft 414 kts 288°
2026-05-01 10:49 28.48465 -87.28940 39930 ft 414 kts 288°
2026-05-01 10:49 28.50254 -87.35151 39930 ft 414 kts 287°
2026-05-01 10:50 28.52040 -87.41362 39925 ft 413 kts 287°
2026-05-01 10:50 28.53822 -87.47569 39927 ft 413 kts 287°
2026-05-01 10:51 28.55600 -87.53776 39929 ft 413 kts 287°
2026-05-01 10:51 28.57376 -87.59986 39925 ft 413 kts 287°
2026-05-01 10:52 28.59150 -87.66197 39925 ft 413 kts 287°
2026-05-01 10:52 28.60921 -87.72410 39923 ft 413 kts 287°
2026-05-01 10:53 28.62686 -87.78609 39925 ft 411 kts 287°
2026-05-01 10:53 28.64442 -87.84804 39925 ft 411 kts 287°
2026-05-01 10:54 28.66196 -87.90997 39927 ft 410 kts 287°
2026-05-01 10:54 28.67937 -87.97158 39925 ft 409 kts 287°
2026-05-01 10:55 28.69677 -88.03322 39925 ft 409 kts 287°
2026-05-01 10:55 28.71411 -88.09484 39927 ft 409 kts 286°
2026-05-01 10:56 28.73139 -88.15642 39926 ft 408 kts 286°
2026-05-01 10:56 28.74852 -88.21756 39922 ft 408 kts 286°
2026-05-01 10:57 28.76574 -88.27912 39922 ft 408 kts 286°
2026-05-01 10:57 28.78294 -88.34070 39917 ft 408 kts 286°
2026-05-01 10:58 28.80011 -88.40227 39917 ft 408 kts 286°
2026-05-01 10:58 28.81725 -88.46389 39916 ft 408 kts 286°
2026-05-01 10:59 28.83435 -88.52548 39912 ft 407 kts 286°
2026-05-01 10:59 28.85141 -88.58704 39911 ft 407 kts 286°
2026-05-01 11:00 28.86558 -88.63826 39908 ft 407 kts 286°
2026-05-01 11:00 28.88259 -88.69986 39912 ft 407 kts 286°
2026-05-01 11:01 28.89761 -88.76206 39910 ft 406 kts 282°
2026-05-01 11:01 28.91021 -88.82490 39900 ft 406 kts 282°
2026-05-01 11:02 28.92294 -88.88778 39902 ft 406 kts 282°
2026-05-01 11:02 28.93607 -88.95052 39898 ft 406 kts 283°
2026-05-01 11:03 28.94936 -89.01317 39898 ft 406 kts 283°
2026-05-01 11:03 28.96265 -89.07588 39895 ft 406 kts 283°
2026-05-01 11:04 28.97589 -89.13855 39894 ft 406 kts 283°
2026-05-01 11:04 28.98908 -89.20124 39893 ft 406 kts 283°
2026-05-01 11:05 29.00224 -89.26393 39901 ft 406 kts 282°
2026-05-01 11:05 29.01535 -89.32659 39904 ft 406 kts 282°
2026-05-01 11:06 29.02844 -89.38930 39906 ft 406 kts 282°
2026-05-01 11:06 29.04151 -89.45204 39903 ft 406 kts 282°
2026-05-01 11:07 29.06105 -89.54616 39908 ft 406 kts 282°
2026-05-01 11:07 29.07405 -89.60894 39901 ft 406 kts 282°
2026-05-01 11:08 29.08701 -89.67174 39904 ft 406 kts 282°
2026-05-01 11:09 29.10641 -89.76600 39904 ft 406 kts 282°
2026-05-01 11:09 29.11931 -89.82888 39905 ft 406 kts 282°
2026-05-01 11:10 29.13860 -89.92319 39901 ft 406 kts 282°
2026-05-01 11:10 29.15142 -89.98606 39907 ft 406 kts 282°
2026-05-01 11:11 29.16423 -90.04903 39906 ft 406 kts 282°
2026-05-01 11:11 29.17700 -90.11200 39909 ft 407 kts 282°
2026-05-01 11:12 29.18832 -90.17538 39908 ft 406 kts 279°
2026-05-01 11:12 29.19860 -90.23894 39920 ft 406 kts 279°
2026-05-01 11:13 29.20900 -90.30242 39920 ft 406 kts 279°
2026-05-01 11:13 29.21963 -90.36597 39919 ft 406 kts 280°
2026-05-01 11:14 29.23030 -90.42957 39916 ft 408 kts 279°
2026-05-01 11:14 29.24096 -90.49335 39913 ft 408 kts 279°
2026-05-01 11:15 29.25162 -90.55726 39910 ft 408 kts 279°
2026-05-01 11:15 29.26214 -90.62060 39903 ft 408 kts 279°
2026-05-01 11:16 29.27273 -90.68455 39900 ft 408 kts 279°
2026-05-01 11:16 29.28328 -90.74840 39900 ft 408 kts 279°
2026-05-01 11:17 29.29379 -90.81227 39901 ft 409 kts 279°
2026-05-01 11:17 29.30432 -90.87642 39900 ft 410 kts 279°
2026-05-01 11:18 29.31481 -90.94049 39905 ft 410 kts 279°
2026-05-01 11:18 29.32528 -91.00468 39906 ft 410 kts 279°
2026-05-01 11:19 29.33572 -91.06886 39906 ft 410 kts 279°
2026-05-01 11:19 29.34612 -91.13302 39906 ft 410 kts 279°
2026-05-01 11:20 29.35649 -91.19716 39909 ft 409 kts 279°
2026-05-01 11:20 29.36682 -91.26123 39914 ft 408 kts 279°
2026-05-01 11:21 29.37710 -91.32526 39914 ft 408 kts 278°
2026-05-01 11:21 29.38735 -91.38934 39914 ft 408 kts 278°
2026-05-01 11:22 29.39755 -91.45325 39911 ft 408 kts 279°
2026-05-01 11:22 29.40772 -91.51702 39911 ft 408 kts 278°
2026-05-01 11:23 29.41793 -91.58139 39906 ft 408 kts 278°
2026-05-01 11:23 29.42804 -91.64541 39905 ft 407 kts 278°
2026-05-01 11:24 29.43808 -91.70899 39903 ft 407 kts 278°
2026-05-01 11:25 29.45314 -91.80537 39906 ft 407 kts 278°
2026-05-01 11:25 29.46802 -91.90093 39906 ft 407 kts 278°
2026-05-01 11:26 29.48318 -91.99863 39904 ft 418 kts 278°
2026-05-01 11:27 29.49339 -92.06462 39900 ft 421 kts 278°
2026-05-01 11:27 29.50352 -92.13033 39900 ft 421 kts 278°
2026-05-01 11:28 29.51368 -92.19643 39902 ft 420 kts 278°
2026-05-01 11:28 29.52380 -92.26250 39913 ft 420 kts 277°
2026-05-01 11:29 29.53889 -92.36150 39903 ft 420 kts 277°
2026-05-01 11:30 29.55390 -92.46059 39903 ft 419 kts 277°
2026-05-01 11:30 29.56386 -92.52656 39903 ft 419 kts 277°
2026-05-01 11:31 29.57377 -92.59242 39913 ft 420 kts 277°
2026-05-01 11:31 29.58369 -92.65852 39911 ft 420 kts 277°
2026-05-01 11:32 29.59357 -92.72463 39914 ft 420 kts 277°
2026-05-01 11:32 29.60342 -92.79082 39914 ft 420 kts 277°
2026-05-01 11:33 29.61324 -92.85703 39914 ft 420 kts 277°
2026-05-01 11:33 29.62303 -92.92321 39908 ft 420 kts 277°
2026-05-01 11:34 29.63279 -92.98945 39911 ft 420 kts 277°
2026-05-01 11:34 29.64244 -93.05526 39910 ft 420 kts 277°
2026-05-01 11:35 29.65212 -93.12157 39906 ft 421 kts 277°
2026-05-01 11:35 29.66179 -93.18795 39906 ft 421 kts 277°
2026-05-01 11:36 29.67499 -93.27898 39911 ft 421 kts 277°
2026-05-01 11:36 29.71310 -93.54431 39906 ft 421 kts 277°
2026-05-01 11:37 29.75077 -93.81058 39927 ft 421 kts 277°
2026-05-01 11:37 29.78788 -94.07674 39936 ft 424 kts 276°
2026-05-01 11:38 29.82457 -94.34390 39928 ft 420 kts 276°
2026-05-01 11:38 29.86047 -94.60954 39920 ft 420 kts 276°
2026-05-01 11:39 29.89593 -94.87617 39924 ft 421 kts 276°
2026-05-01 11:39 29.93080 -95.14242 39916 ft 420 kts 275°
2026-05-01 11:40 29.96621 -95.40797 39924 ft 417 kts 277°
2026-05-01 11:40 30.00907 -95.67063 39837 ft 415 kts 277°
2026-05-01 11:41 30.05076 -95.93523 39843 ft 421 kts 278°
2026-05-01 11:41 30.09202 -96.20023 39777 ft 424 kts 277°
2026-05-01 11:42 30.13317 -96.46867 39788 ft 424 kts 277°
2026-05-01 11:42 30.17403 -96.73887 39940 ft 427 kts 277°
2026-05-01 11:43 30.21445 -97.00992 40029 ft 428 kts 275°
2026-05-01 11:43 30.25429 -97.28125 39958 ft 428 kts 275°
2026-05-01 11:44 30.31286 -97.68775 39974 ft 428 kts 275°
2026-05-01 11:44 30.35134 -97.95980 39992 ft 428 kts 275°
2026-05-01 11:45 30.38955 -98.23437 39993 ft 433 kts 275°
2026-05-01 11:45 30.42730 -98.50976 39967 ft 433 kts 274°
2026-05-01 11:46 30.46443 -98.78534 39975 ft 430 kts 274°
2026-05-01 11:46 30.50065 -99.05858 39962 ft 429 kts 274°
2026-05-01 11:47 30.53614 -99.33066 39956 ft 425 kts 274°
2026-05-01 11:47 30.56508 -99.55595 39988 ft 424 kts 273°
2026-05-01 11:48 30.59922 -99.82605 40006 ft 425 kts 273°
2026-05-01 11:48 30.63284 -100.09841 39945 ft 426 kts 273°
2026-05-01 11:49 30.66586 -100.37061 39970 ft 425 kts 273°
2026-05-01 11:49 30.69830 -100.64301 40012 ft 427 kts 273°
2026-05-01 11:50 30.73038 -100.91661 39953 ft 427 kts 273°
2026-05-01 11:50 30.76176 -101.19035 40033 ft 427 kts 273°
2026-05-01 11:51 30.77725 -101.32716 39926 ft 426 kts 273°
2026-05-01 11:51 30.79255 -101.46351 39925 ft 425 kts 273°
2026-05-01 11:51 30.82267 -101.73612 39924 ft 424 kts 272°
2026-05-01 11:52 30.85190 -102.00586 39928 ft 423 kts 272°
2026-05-01 11:52 30.88069 -102.27677 39923 ft 421 kts 272°
2026-05-01 11:53 30.90877 -102.54669 39951 ft 418 kts 272°
2026-05-01 11:53 30.93624 -102.81616 39990 ft 420 kts 272°
2026-05-01 11:54 30.94999 -102.95155 39870 ft 422 kts 273°
2026-05-01 11:54 30.98195 -103.08473 39870 ft 429 kts 281°
2026-05-01 11:54 31.05525 -103.35039 39871 ft 430 kts 281°
2026-05-01 11:55 31.12779 -103.61733 39913 ft 433 kts 281°
2026-05-01 11:55 31.20004 -103.88552 39885 ft 433 kts 282°
2026-05-01 11:56 31.27193 -104.15490 39886 ft 434 kts 282°
2026-05-01 11:56 31.34303 -104.42381 39887 ft 436 kts 282°
2026-05-01 11:57 31.41436 -104.69617 39891 ft 436 kts 282°
2026-05-01 11:57 31.48484 -104.96793 39889 ft 439 kts 282°
2026-05-01 11:58 31.53928 -105.17956 39891 ft 441 kts 282°
2026-05-01 11:59 31.56568 -105.28283 39889 ft 441 kts 282°
2026-05-01 11:59 31.58325 -105.35172 39887 ft 441 kts 283°
2026-05-01 12:00 31.60951 -105.45512 39891 ft 441 kts 283°
2026-05-01 12:01 31.63558 -105.55813 39890 ft 441 kts 283°
2026-05-01 12:01 31.65300 -105.62713 39906 ft 442 kts 283°
2026-05-01 12:02 31.67040 -105.69630 39892 ft 443 kts 283°
2026-05-01 12:02 31.68781 -105.76561 39876 ft 442 kts 283°
2026-05-01 12:03 31.70517 -105.83490 39873 ft 442 kts 283°
2026-05-01 12:03 31.72249 -105.90425 39867 ft 442 kts 283°
2026-05-01 12:04 31.73975 -105.97353 39865 ft 442 kts 283°
2026-05-01 12:04 31.75700 -106.04292 39902 ft 442 kts 283°
2026-05-01 12:05 31.77420 -106.11229 39929 ft 442 kts 283°
2026-05-01 12:05 31.79991 -106.21633 39971 ft 442 kts 283°
2026-05-01 12:06 31.81502 -106.28618 39994 ft 440 kts 277°
2026-05-01 12:06 31.82201 -106.35723 39993 ft 440 kts 275°
2026-05-01 12:07 31.82750 -106.42936 40000 ft 445 kts 274°
2026-05-01 12:07 31.84055 -106.60907 40007 ft 447 kts 274°
2026-05-01 12:08 31.86167 -106.89969 39850 ft 445 kts 274°
2026-05-01 12:08 31.88199 -107.18898 39856 ft 443 kts 275°
2026-05-01 12:09 31.90161 -107.47745 39861 ft 441 kts 274°
2026-05-01 12:09 31.92126 -107.76572 39867 ft 444 kts 278°
2026-05-01 12:10 32.01900 -108.18657 39859 ft 444 kts 284°
2026-05-01 12:11 32.11821 -108.60778 39926 ft 445 kts 284°
2026-05-01 12:11 32.18322 -108.88751 39859 ft 445 kts 283°
2026-05-01 12:12 32.24807 -109.16970 39860 ft 444 kts 284°
2026-05-01 12:12 32.31304 -109.38830 39855 ft 445 kts 290°
2026-05-01 12:13 32.33678 -109.45580 39859 ft 445 kts 290°
2026-05-01 12:13 32.36042 -109.52333 39854 ft 443 kts 291°
2026-05-01 12:14 32.38386 -109.59058 39864 ft 442 kts 290°
2026-05-01 12:14 32.40719 -109.65778 39859 ft 442 kts 291°
2026-05-01 12:15 32.43054 -109.72516 39863 ft 443 kts 291°
2026-05-01 12:15 32.45397 -109.79290 39878 ft 446 kts 291°
2026-05-01 12:16 32.47742 -109.86079 39876 ft 445 kts 291°
2026-05-01 12:16 32.50079 -109.92862 39868 ft 445 kts 291°
2026-05-01 12:17 32.52409 -109.99640 39883 ft 444 kts 291°
2026-05-01 12:17 32.54651 -110.06173 39877 ft 442 kts 291°
2026-05-01 12:18 32.56955 -110.12899 39897 ft 440 kts 291°
2026-05-01 12:18 32.59250 -110.19617 39887 ft 439 kts 291°
2026-05-01 12:19 32.61536 -110.26320 39911 ft 438 kts 291°
2026-05-01 12:19 32.63818 -110.33023 39903 ft 439 kts 291°
2026-05-01 12:20 32.66092 -110.39728 39914 ft 438 kts 291°
2026-05-01 12:20 32.68371 -110.46448 39895 ft 438 kts 291°
2026-05-01 12:21 32.70641 -110.53158 39898 ft 438 kts 291°
2026-05-01 12:21 32.72905 -110.59868 39896 ft 437 kts 291°
2026-05-01 12:22 32.80612 -110.82814 39888 ft 437 kts 291°
2026-05-01 12:22 32.89546 -111.09616 39871 ft 435 kts 291°
2026-05-01 12:23 32.98395 -111.36390 39862 ft 433 kts 291°
2026-05-01 12:23 33.07103 -111.62961 39894 ft 433 kts 291°
2026-05-01 12:24 33.15809 -111.89753 39907 ft 432 kts 291°
2026-05-01 12:24 33.24429 -112.16503 39863 ft 433 kts 291°
2026-05-01 12:25 33.37302 -112.56893 39907 ft 432 kts 290°
2026-05-01 12:26 33.45807 -112.83860 39893 ft 432 kts 291°
2026-05-01 12:26 33.60030 -113.23533 39840 ft 432 kts 292°
2026-05-01 12:27 33.74083 -113.63389 39894 ft 432 kts 292°
2026-05-01 12:28 33.87821 -114.03354 39829 ft 430 kts 292°
2026-05-01 12:29 33.96245 -114.45138 39816 ft 429 kts 282°
2026-05-01 12:29 34.03272 -114.87464 39828 ft 429 kts 282°
2026-05-01 12:30 34.10140 -115.29685 39819 ft 427 kts 282°
2026-05-01 12:31 34.14635 -115.57826 39823 ft 426 kts 282°
2026-05-01 12:31 34.16072 -115.72010 39837 ft 431 kts 268°
2026-05-01 12:31 34.14710 -115.86448 39893 ft 433 kts 266°
2026-05-01 12:32 34.13286 -116.00993 39254 ft 426 kts 267°
2026-05-01 12:32 34.12591 -116.08077 37203 ft 422 kts 267°
2026-05-01 12:32 34.12244 -116.11627 36434 ft 431 kts 267°
2026-05-01 12:33 34.11894 -116.15200 35700 ft 439 kts 267°
2026-05-01 12:33 34.11648 -116.17688 35194 ft 444 kts 267°
2026-05-01 12:33 34.11156 -116.22666 34353 ft 448 kts 267°
2026-05-01 12:33 34.10785 -116.26352 33087 ft 437 kts 267°
2026-05-01 12:34 34.10424 -116.29931 31768 ft 431 kts 268°
2026-05-01 12:34 34.10058 -116.33485 31220 ft 427 kts 267°
2026-05-01 12:34 34.09676 -116.37066 30794 ft 435 kts 267°
2026-05-01 12:34 34.09284 -116.40729 30284 ft 445 kts 267°
2026-05-01 12:35 34.08883 -116.44469 29705 ft 454 kts 267°
2026-05-01 12:35 34.08474 -116.48265 29114 ft 460 kts 267°
2026-05-01 12:35 34.08193 -116.50857 28740 ft 461 kts 267°
2026-05-01 12:35 34.07779 -116.54650 28316 ft 446 kts 267°
2026-05-01 12:36 34.07385 -116.58198 28014 ft 424 kts 267°
2026-05-01 12:36 34.07023 -116.61674 27673 ft 412 kts 268°
2026-05-01 12:36 34.06710 -116.65108 27282 ft 402 kts 268°
2026-05-01 12:36 34.06416 -116.68397 26765 ft 397 kts 268°
2026-05-01 12:37 34.06118 -116.71686 26219 ft 393 kts 268°
2026-05-01 12:37 34.05835 -116.74776 25685 ft 390 kts 268°
2026-05-01 12:37 34.05538 -116.78006 25108 ft 388 kts 268°
2026-05-01 12:37 34.05239 -116.81231 24511 ft 386 kts 267°
2026-05-01 12:38 34.04942 -116.84430 23979 ft 382 kts 267°
2026-05-01 12:38 34.04643 -116.87607 23425 ft 379 kts 267°
2026-05-01 12:38 34.04333 -116.90754 22796 ft 377 kts 265°
2026-05-01 12:38 34.03931 -116.93853 22321 ft 372 kts 264°
2026-05-01 12:39 34.03512 -116.96912 21848 ft 368 kts 264°
2026-05-01 12:39 34.03102 -116.99953 21408 ft 367 kts 265°
2026-05-01 12:39 34.02700 -117.02976 20951 ft 365 kts 265°
2026-05-01 12:39 34.02321 -117.05989 20500 ft 363 kts 265°
2026-05-01 12:40 34.01967 -117.08996 20046 ft 361 kts 266°
2026-05-01 12:40 34.01617 -117.11982 19605 ft 358 kts 266°
2026-05-01 12:40 34.01268 -117.14937 19161 ft 357 kts 265°
2026-05-01 12:40 34.00918 -117.17896 18695 ft 355 kts 265°
2026-05-01 12:41 34.00569 -117.20830 18330 ft 354 kts 265°
2026-05-01 12:41 34.00222 -117.23761 17845 ft 352 kts 266°
2026-05-01 12:41 33.99878 -117.26675 17400 ft 351 kts 265°
2026-05-01 12:41 33.99527 -117.29577 16963 ft 350 kts 265°
2026-05-01 12:42 33.99179 -117.32467 16523 ft 348 kts 265°
2026-05-01 12:42 33.98838 -117.35359 16087 ft 347 kts 265°
2026-05-01 12:42 33.98501 -117.38235 15650 ft 347 kts 265°
2026-05-01 12:42 33.98167 -117.41070 15226 ft 346 kts 265°
2026-05-01 12:43 33.97834 -117.43896 14931 ft 337 kts 265°
2026-05-01 12:43 33.97507 -117.46668 14630 ft 329 kts 265°
2026-05-01 12:43 33.97418 -117.49392 14263 ft 325 kts 278°
2026-05-01 12:43 33.97778 -117.52059 13711 ft 324 kts 285°
2026-05-01 12:44 33.98261 -117.54718 13185 ft 323 kts 285°
2026-05-01 12:44 33.98746 -117.57359 12766 ft 322 kts 284°
2026-05-01 12:44 33.99661 -117.62454 12232 ft 302 kts 284°
2026-05-01 12:45 34.00504 -117.67298 11453 ft 293 kts 281°
2026-05-01 12:45 34.00558 -117.69755 11145 ft 295 kts 267°
2026-05-01 12:45 34.00353 -117.72182 10686 ft 290 kts 264°
2026-05-01 12:46 34.00102 -117.74640 10441 ft 298 kts 264°
2026-05-01 12:46 33.99849 -117.77117 9937 ft 297 kts 264°
2026-05-01 12:46 33.99601 -117.79563 9377 ft 294 kts 264°
2026-05-01 12:46 33.99355 -117.82022 9013 ft 297 kts 264°
2026-05-01 12:47 33.99119 -117.84475 8640 ft 294 kts 264°
2026-05-01 12:47 33.98881 -117.86903 8232 ft 289 kts 264°
2026-05-01 12:47 33.98646 -117.89297 7888 ft 287 kts 264°
2026-05-01 12:47 33.98415 -117.91673 7524 ft 285 kts 264°
2026-05-01 12:48 33.98182 -117.94032 7170 ft 282 kts 264°
2026-05-01 12:48 33.97950 -117.96371 6820 ft 280 kts 264°
2026-05-01 12:48 33.97746 -117.98694 6466 ft 278 kts 265°
2026-05-01 12:48 33.97557 -118.01003 6086 ft 276 kts 265°
2026-05-01 12:49 33.97346 -118.03282 5708 ft 272 kts 264°
2026-05-01 12:49 33.97108 -118.05512 5338 ft 267 kts 264°
2026-05-01 12:49 33.96876 -118.07716 4989 ft 262 kts 265°
2026-05-01 12:49 33.96658 -118.09869 4652 ft 256 kts 265°
2026-05-01 12:50 33.96443 -118.11979 4321 ft 252 kts 264°
2026-05-01 12:50 33.96229 -118.14053 3996 ft 247 kts 264°
2026-05-01 12:50 33.96019 -118.16095 3687 ft 244 kts 264°
2026-05-01 12:50 33.95816 -118.18073 3387 ft 237 kts 264°
2026-05-01 12:51 33.95618 -118.19995 3081 ft 228 kts 264°
2026-05-01 12:51 33.95427 -118.21863 2787 ft 223 kts 263°
2026-05-01 12:51 33.95057 -118.25452 2217 ft 203 kts 262°
2026-05-01 12:52 33.94888 -118.27102 1949 ft 194 kts 262°
2026-05-01 12:52 33.94574 -118.30158 1436 ft 171 kts 262°
2026-05-01 12:52 33.94437 -118.31486 1214 ft 151 kts 262°
2026-05-01 12:53 33.94202 -118.33774 851 ft 130 kts 262°
2026-05-01 12:53 33.94089 -118.34848 673 ft 129 kts 262°
2026-05-01 12:53 33.93988 -118.35926 493 ft 130 kts 262°
2026-05-01 12:54 33.93869 -118.37005 327 ft 131 kts 262°
2026-05-01 12:54 33.93655 -118.39083 102 ft 114 kts 264°
2026-05-01 12:54 33.93578 -118.39828 104 ft 52 kts 263°
2026-05-01 12:55 33.93563 -118.40086 104 ft 15 kts 274°
2026-05-01 12:55 33.93582 -118.40230 104 ft 20 kts 284°
2026-05-01 12:55 33.93620 -118.40353 104 ft 15 kts 284°
2026-05-01 12:56 33.93621 -118.40491 103 ft 12 kts 263°
2026-05-01 12:56 33.93613 -118.40572 102 ft 12 kts 263°
2026-05-01 12:56 33.93601 -118.40691 100 ft 17 kts 263°
2026-05-01 12:56 33.93584 -118.40849 100 ft 21 kts 263°
2026-05-01 12:57 33.93565 -118.41037 104 ft 24 kts 263°
2026-05-01 12:57 33.93678 -118.41273 103 ft 10 kts 352°
2026-05-01 12:57 33.93760 -118.41258 103 ft 14 kts 15°
2026-05-01 12:58 33.93874 -118.41262 100 ft 19 kts 352°
2026-05-01 12:58 33.94013 -118.41284 101 ft 22 kts 352°
2026-05-01 12:58 33.94141 -118.41302 102 ft 16 kts 353°
2026-05-01 12:59 33.94161 -118.41305 101 ft 0 kts 353°
2026-05-01 12:59 33.94185 -118.41308 101 ft 6 kts 353°
2026-05-01 12:59 33.94252 -118.41229 102 ft 11 kts 90°
2026-05-01 13:00 33.94256 -118.41168 101 ft 4 kts 84°
2026-05-01 13:00 33.94260 -118.41129 100 ft 3 kts 83°
2026-05-01 13:01 33.94262 -118.41105 99 ft 0 kts 83°